TimeEST,TemperatureF,Dew PointF,Humidity,Sea Level PressureIn,VisibilityMPH,Wind Direction,Wind SpeedMPH,Gust SpeedMPH,PrecipitationIn,Events,Conditions,WindDirDegrees,DateUTC
12:53 AM,39.9,37.0,89,29.57,6.0,ENE,9.2,-,0.05,,Overcast,60,2013-03-06 05:53:00
1:53 AM,39.0,35.1,86,29.57,10.0,NNE,10.4,-,0.05,Rain,Light Rain,20,2013-03-06 06:53:00
2:53 AM,36.0,33.1,89,29.57,10.0,NNW,11.5,-,0.04,Rain,Light Rain,330,2013-03-06 07:53:00
3:53 AM,35.1,32.0,89,29.58,10.0,NNW,11.5,-,0.04,,Overcast,340,2013-03-06 08:53:00
4:53 AM,35.1,32.0,89,29.60,10.0,West,6.9,-,0.03,,Overcast,260,2013-03-06 09:53:00
5:06 AM,35.6,32.0,87,29.60,10.0,WNW,4.6,-,N/A,,Overcast,300,2013-03-06 10:06:00
5:16 AM,35.6,32.0,87,29.60,10.0,WNW,5.8,-,0.01,,Overcast,290,2013-03-06 10:16:00
5:53 AM,36.0,30.9,82,29.59,10.0,NW,15.0,25.3,0.03,,Overcast,310,2013-03-06 10:53:00
7:45 AM,35.6,28.4,75,29.64,2.5,WNW,10.4,23.0,0.02,Snow,Light Snow,300,2013-03-06 12:45:00
7:49 AM,35.6,28.4,75,29.64,6.0,WNW,13.8,21.9,0.02,Snow,Light Snow,290,2013-03-06 12:49:00
7:53 AM,36.0,27.0,70,29.63,9.0,WNW,12.7,24.2,0.02,,Overcast,300,2013-03-06 12:53:00
8:53 AM,37.9,24.1,57,29.65,10.0,WNW,12.7,27.6,0.01,,Mostly Cloudy,290,2013-03-06 13:53:00
9:53 AM,37.9,25.0,60,29.67,10.0,NW,20.7,35.7,0.01,,Overcast,310,2013-03-06 14:53:00
10:53 AM,42.1,26.1,53,29.68,10.0,WNW,13.8,28.8,0.00,,Mostly Cloudy,300,2013-03-06 15:53:00
11:53 AM,42.1,25.0,51,29.71,10.0,WNW,21.9,29.9,N/A,,Overcast,300,2013-03-06 16:53:00
12:53 PM,45.0,28.0,52,29.73,10.0,NNW,19.6,33.4,N/A,,Overcast,330,2013-03-06 17:53:00
1:53 PM,46.9,27.0,46,29.73,10.0,NNW,21.9,40.3,N/A,,Overcast,330,2013-03-06 18:53:00
2:53 PM,46.9,28.0,48,29.76,10.0,NNW,20.7,28.8,N/A,,Overcast,330,2013-03-06 19:53:00
3:53 PM,46.9,28.0,48,29.82,10.0,NNW,20.7,29.9,N/A,,Overcast,330,2013-03-06 20:53:00
4:53 PM,46.0,28.0,50,29.86,10.0,NNW,17.3,27.6,N/A,,Overcast,330,2013-03-06 21:53:00
5:53 PM,45.0,27.0,49,29.92,10.0,NNW,18.4,29.9,N/A,,Mostly Cloudy,330,2013-03-06 22:53:00
6:53 PM,43.0,27.0,53,29.97,10.0,NNW,15.0,29.9,N/A,,Overcast,330,2013-03-06 23:53:00
7:53 PM,41.0,26.1,55,30.00,10.0,NNW,11.5,21.9,N/A,,Mostly Cloudy,330,2013-03-07 00:53:00
8:53 PM,39.9,26.1,58,30.01,10.0,NNW,8.1,-,N/A,,Clear,330,2013-03-07 01:53:00
9:53 PM,39.0,26.1,60,30.04,10.0,NW,8.1,-,N/A,,Partly Cloudy,320,2013-03-07 02:53:00
10:53 PM,39.9,27.0,60,30.04,10.0,NW,8.1,-,N/A,,Overcast,310,2013-03-07 03:53:00
11:53 PM,41.0,27.0,57,30.05,10.0,NW,12.7,-,N/A,,Overcast,310,2013-03-07 04:53:00